20:00
Airports
History
Links
Donate
Help keep this website running!
PayPal
Bitcoin
This page is community maintained. The information is intended for PC simulator navigation or reference.
Always use approved charts for navigation.
ID11
Wood Brothers Ranch
Wood Brothers Ranch (ID11)
Reubens, Idaho, United States (83548)
4
Lat/Lng:46° 22' 55.61" N / 116° 30' 45.53" W
46.382114 / -116.512646
Elevation:3400'ft / 1036mMSL
ID / ICAO:ID11
Runways:1
Longest:07-25
Grass 354m / 1,162ft
Nearby Weather19:56 GMT 2018-02-19
Nearby weather at KLWS, Lewiston-nez Perce County located 24.0 nautical miles from ID11
Altimeter: 30.07
Visibility: 10.0 statute miles
Wind: 14 knots (from 300°)
Temp: -6°c / 21°f
Humidity: 57.5%

METAR: KLWS 191956Z 30014G19KT 10SM OVC044 M06/M13 A3007 RMK AO2 SLP200 T10561128

(Powered by phpweather)
Nearby VORs <50NM
Nearby NDBs
Runway 07 / 25
Dimensions:354.1 x 12.2m 1162' x 40'ft
Surface:Grass
Runway 07 [A]Runway 25 [B]
Heading:088°TH 268°TH
Lat:
Lng:
46° 22' 55.41"N
116° 30' 53.75"W
46° 22' 55.81"N
116° 30' 37.3"W
User Notes and Comments
46° 22' 55.61" N / 116° 30' 45.53" W
Distance To
Airport ID:
Nearby Airports
(U) Craigmont Muni 9.4 NM
S89 S 170°
(U) Orofino Muni 13.5 NM
S68 NE 56°
(U) Nez Perce Muni 16.4 NM
0S5 SE 127°
(C) Lewiston-nez Perce County 24.0 NM
KLWS ( WX ) W 268°
(U) Cottonwood Muni 25.3 NM
S84 SSE 159°
4 Kamiah Muni 26.3 NM
S73 ESE 115°
(R) Skid Row 27.1 NM
WT33 W 276°
VFR Chart
Flight Planning at SkyVector.com